[[{"header":{"parameterUnit":"m.s-1","parameterCategory":1,"la1":30.2991,"la2":30.254,"lo1":-89.0895,"lo2":-89.0444,"dy":0.0017,"dx":0.0017,"nx":28,"ny":28,"refTime":"2023-11-07T09:00:00:Z","depth":0,"parameterNumber":2,"parameterNumberName":"U-component_of_WINDS"},"data":[0,0,0,0,0,0,0,0,0,0,0,0,0,0,0,0,0,0,0,0,0,0,0,0,0,0,0,0,0,0,0,0,0,0,0,0,0,0,0,0,0,0,0,0,0,0,0,0,0,0,0,0,0,0,0,0,0,0,1.0487,1.0487,0,1.0521,1.0521,1.0521,1.0498,1.0497,1.0496,1.0495,1.0528,1.053,1.0532,0,0,0,0,0,0,0,0,0,0,0,0,0,1.0402,1.0404,1.0487,1.0487,1.0488,1.052,1.0521,1.0521,1.0498,1.0497,1.0495,1.0494,1.0527,1.0529,1.0532,0,0,0,0,0,0,0,0,0,0,0,0,0,1.0438,1.0404,1.0487,1.048,1.048,1.052,1.0521,1.0522,1.0498,1.0497,1.0495,1.0494,1.0527,1.0529,1.0532,1.0581,0,0,1.0541,1.0542,0,0,0,0,0,0,0,0,1.0436,1.0441,1.0481,1.0481,1.048,1.0503,1.0503,1.0541,1.0499,1.0491,1.0495,1.0493,1.0521,1.0524,1.0534,1.0582,1.0584,1.0541,1.0543,1.0544,1.0545,0,0,0,0,0,0,0,1.0433,1.0439,1.05,1.0481,1.0481,1.0475,1.0478,1.051,1.0514,1.0492,1.049,1.0494,1.0521,1.0531,1.0534,1.0584,1.0541,1.0543,1.0545,1.0546,1.0674,1.0676,0,0,0,0,0,0,1.0431,1.0437,1.0499,1.0501,1.0454,1.0478,1.0482,1.0498,1.0514,1.0515,1.0496,1.0493,1.0527,1.0531,1.0535,1.0593,1.0544,1.0546,1.0548,1.0673,1.0675,1.0677,0,0,0,0,0,0,1.043,1.0437,1.0498,1.0469,1.0476,1.0481,1.0499,1.0499,1.051,1.0517,1.0518,1.0506,1.0526,1.0532,1.057,1.0594,1.0548,1.055,1.0671,1.0673,1.0676,1.0709,0,0,0,0,0,0,1.0427,1.0437,1.0455,1.0469,1.0478,1.0532,1.0501,1.0501,1.0515,1.0512,1.0527,1.0528,1.0525,1.0566,1.0573,1.0597,1.0552,1.0668,1.0672,1.0675,1.0706,1.0713,1.0719,0,0,0,0,0,1.0424,1.0463,1.0456,1.0464,1.0501,1.0533,1.0538,1.0535,1.0517,1.0535,1.054,1.0527,1.0591,1.057,1.0577,1.0603,1.0667,1.0671,1.0675,1.0703,1.0712,1.0718,0,0,0,0,0,0,1.0451,1.0465,1.0457,1.0502,1.0517,1.0529,1.0553,1.0543,1.0563,1.0559,1.0554,1.0558,1.0598,1.0604,1.0581,1.0651,1.0626,1.0631,1.0645,1.0653,1.0659,1.0656,1.0555,0,0,0,0,0,1.0463,1.0488,1.0498,1.0537,1.0545,1.0548,1.0561,1.0558,1.0572,1.0578,1.0586,1.06,1.0624,1.0639,1.0661,1.0707,1.071,1.0729,1.0735,1.074,1.0745,1.077,1.0778,1.0689,1.0689,1.0689,0,0,1.0486,1.0496,1.0513,1.0542,1.0553,1.0579,1.0553,1.0581,1.06,1.0582,1.0619,1.0625,1.0641,1.0684,1.0703,1.069,1.077,1.0745,1.0749,1.0751,1.0775,1.0783,1.079,1.0692,1.0692,1.0691,0,0,1.0541,1.0552,1.0585,1.0597,1.0614,1.0616,1.0624,1.0638,1.0641,1.0678,1.0665,1.0688,1.0728,1.074,1.0751,1.0812,1.08,1.0819,1.0851,1.0876,1.0883,1.0889,1.091,1.0918,1.0824,1.0824,1.0824,0,1.0568,1.0606,1.0603,1.0633,1.0646,1.0632,1.0665,1.0677,1.07,1.0709,1.0695,1.0745,1.0755,1.08,1.0815,1.0825,1.0834,1.0817,1.0882,1.0888,1.0894,1.0914,1.0922,1.0826,1.0826,1.0826,1.0825,0,1.0638,1.0665,1.069,1.0713,1.0729,1.076,1.0762,1.0779,1.0774,1.0777,1.0815,1.0826,1.085,1.0861,1.0856,1.0905,1.0897,1.0883,1.0857,1.0904,1.0923,1.0931,1.0829,1.0828,1.0828,1.0827,0,0,1.071,1.0732,1.0741,1.0751,1.0769,1.079,1.0821,1.0844,1.0859,1.0875,1.0901,1.0935,1.0922,1.0935,1.0932,1.0954,1.1001,1.0937,1.0937,1.0948,1.1055,1.1065,1.1074,1.0994,1.0995,1.0996,1.1053,0,1.0765,1.0819,1.0818,1.0867,1.0892,1.088,1.0906,1.092,1.0925,1.0946,1.0951,1.0975,1.0957,1.0964,1.0985,1.099,1.1022,1.0987,1.1016,1.1018,1.1012,1.1084,1.1094,1.1147,1.1061,1.1062,1.1063,0,1.0837,1.0857,1.0909,1.0924,1.0934,1.0958,1.098,1.1001,1.1017,1.1018,1.1033,1.1027,1.1058,1.1032,1.1074,1.105,1.1063,1.1067,1.1069,1.1071,1.1042,1.1086,1.1164,1.1171,1.1074,1.1073,1.1073,0,1.0883,1.0923,1.0959,1.0969,1.0987,1.1004,1.1013,1.1027,1.1041,1.106,1.107,1.1092,1.1104,1.1122,1.1121,1.1103,1.1164,1.1139,1.1166,1.1166,1.1178,1.1177,1.1258,1.1188,1.1188,1.1188,1.1187,0,1.0945,1.0977,1.098,1.1003,1.1038,1.1037,1.1072,1.1079,1.1092,1.1115,1.1106,1.1128,1.1127,1.1149,1.1149,1.1184,1.119,1.1191,1.1191,1.1192,1.1191,1.1199,1.1195,1.119,1.1189,1.1189,1.1188,0,1.1002,1.1005,1.1044,1.1059,1.1063,1.1089,1.1101,1.1122,1.1126,1.1156,1.1162,1.1168,1.1194,1.1196,1.1226,1.1226,1.1268,1.1264,1.1263,1.1261,1.1288,1.1285,1.1376,1.1387,1.1311,1.1311,1.1312,0,1.104,1.1065,1.1082,1.1097,1.1107,1.1131,1.1146,1.1146,1.1161,1.1182,1.12,1.1225,1.1245,1.1287,1.1294,1.1317,1.1312,1.1342,1.1315,1.1316,1.1312,1.131,1.1312,1.1347,1.1348,1.1349,1.1349,0,1.1108,1.1108,1.113,1.1153,1.1171,1.1189,1.1206,1.1219,1.122,1.1238,1.1265,1.128,1.1311,1.1336,1.1359,1.1367,1.1358,1.1358,1.1365,1.1366,1.1364,1.1364,1.1276,1.1356,1.1355,1.1354,1.1354,1.1354,1.1156,1.1177,1.1193,1.1218,1.123,1.1246,1.1267,1.1274,1.1296,1.1321,1.132,1.1349,1.1364,1.1394,1.1404,1.1427,1.1416,1.1427,1.1429,1.1432,1.1434,1.1361,1.1431,1.1431,1.143,1.143,1.143,0,1.1222,1.1232,1.1255,1.1279,1.1298,1.129,1.1308,1.1324,1.135,1.1366,1.1386,1.1416,1.1441,1.145,1.1474,1.149,1.1487,1.1496,1.1494,1.1496,1.1442,1.1433,1.1498,1.1498,1.1498,1.1498,1.1498,1.1498,1.1259,1.1294,1.1297,1.1339,1.1348,1.1377,1.1388,1.1403,1.1415,1.145,1.147,1.1476,1.1489,1.1514,1.1536,1.1538,1.1546,1.1557,1.1558,1.1507,1.15,1.1493,1.1485,1.1559,1.156,1.1609,1.161,1.161]},{"header":{"parameterUnit":"m.s-1","parameterCategory":1,"la1":30.2991,"la2":30.254,"lo1":-89.0895,"lo2":-89.0444,"dy":0.0017,"dx":0.0017,"nx":28,"ny":28,"refTime":"2023-11-07T09:00:00:Z","depth":0,"parameterNumber":3,"parameterNumberName":"V-component_of_WINDS"},"data":[0,0,0,0,0,0,0,0,0,0,0,0,0,0,0,0,0,0,0,0,0,0,0,0,0,0,0,0,0,0,0,0,0,0,0,0,0,0,0,0,0,0,0,0,0,0,0,0,0,0,0,0,0,0,0,0,0,0,0.8682,0.8682,0,0.8726,0.8726,0.8727,0.8728,0.8728,0.8727,0.8727,0.8772,0.8774,0.8776,0,0,0,0,0,0,0,0,0,0,0,0,0,0.8599,0.86,0.8682,0.8682,0.8683,0.8726,0.8726,0.8727,0.8728,0.8728,0.8727,0.8726,0.8772,0.8774,0.8776,0,0,0,0,0,0,0,0,0,0,0,0,0,0.8638,0.8601,0.8682,0.8689,0.869,0.8726,0.8726,0.8727,0.8728,0.8728,0.8727,0.8726,0.8771,0.8774,0.8776,0.8808,0,0,0.8784,0.8785,0,0,0,0,0,0,0,0,0.8636,0.8641,0.8687,0.8688,0.8689,0.8721,0.8714,0.8754,0.8729,0.8714,0.8727,0.8726,0.8756,0.876,0.877,0.881,0.8812,0.8784,0.8786,0.8787,0.8788,0,0,0,0,0,0,0,0.8633,0.8639,0.8699,0.8688,0.8689,0.869,0.8694,0.8722,0.8739,0.8715,0.8715,0.872,0.8756,0.8767,0.8771,0.8813,0.8784,0.8786,0.8788,0.8789,0.8881,0.8882,0,0,0,0,0,0,0.8629,0.8637,0.8698,0.87,0.866,0.8692,0.8697,0.8711,0.8738,0.8742,0.8721,0.872,0.8763,0.8768,0.8772,0.8811,0.8787,0.8789,0.8791,0.888,0.8882,0.8883,0,0,0,0,0,0,0.8627,0.8634,0.8696,0.8669,0.8677,0.8694,0.871,0.8713,0.8724,0.8743,0.8746,0.8729,0.8763,0.8769,0.8799,0.8813,0.879,0.8793,0.8879,0.8881,0.8882,0.889,0,0,0,0,0,0,0.8625,0.8634,0.8646,0.8669,0.8678,0.8722,0.8711,0.8714,0.8728,0.8727,0.8751,0.8754,0.8763,0.8795,0.8802,0.8816,0.8795,0.8878,0.888,0.8882,0.8889,0.8892,0.8894,0,0,0,0,0,0.8622,0.8647,0.8647,0.8654,0.8694,0.8723,0.8728,0.8737,0.8729,0.8742,0.8754,0.8754,0.881,0.8798,0.8806,0.8821,0.8877,0.888,0.8881,0.8887,0.8891,0.8894,0,0,0,0,0,0,0.8626,0.865,0.865,0.8683,0.8701,0.8723,0.8739,0.874,0.8761,0.8759,0.8769,0.8775,0.8805,0.8816,0.8802,0.8853,0.8843,0.8847,0.8845,0.8848,0.8851,0.8848,0.8797,0,0,0,0,0,0.863,0.8651,0.8672,0.8699,0.8708,0.8722,0.8735,0.874,0.8759,0.8766,0.8781,0.8799,0.8821,0.8835,0.8856,0.889,0.8895,0.8904,0.8907,0.8909,0.8912,0.893,0.8935,0.8889,0.8889,0.8889,0,0,0.864,0.8656,0.8669,0.87,0.8714,0.8736,0.8728,0.8752,0.8768,0.877,0.8799,0.8811,0.8832,0.8864,0.8878,0.8874,0.8926,0.8911,0.8913,0.8915,0.8933,0.8937,0.8941,0.8891,0.889,0.889,0,0,0.8669,0.8684,0.8708,0.8722,0.8743,0.8753,0.8758,0.878,0.8788,0.8817,0.8819,0.8838,0.8876,0.8891,0.8903,0.8937,0.8937,0.8943,0.8958,0.8976,0.8979,0.8982,0.8995,0.8999,0.8946,0.8946,0.8947,0,0.8679,0.8712,0.872,0.8744,0.8757,0.8759,0.8784,0.8797,0.8824,0.8834,0.8828,0.8875,0.8889,0.8925,0.8933,0.8943,0.895,0.8941,0.8978,0.8981,0.8984,0.8996,0.9001,0.8947,0.8947,0.8947,0.8947,0,0.8723,0.8746,0.8763,0.8789,0.8804,0.8828,0.884,0.8854,0.8858,0.8867,0.8897,0.8914,0.8939,0.8947,0.8951,0.8983,0.898,0.8976,0.8966,0.8989,0.9,0.9005,0.8948,0.8948,0.8948,0.8947,0,0,0.8757,0.8786,0.8792,0.8804,0.8827,0.8845,0.8869,0.8893,0.8905,0.8924,0.8944,0.8975,0.8972,0.8986,0.8991,0.9006,0.9032,0.9001,0.9001,0.9006,0.9068,0.9072,0.9077,0.9032,0.9033,0.9034,0.9067,0,0.8789,0.8831,0.8839,0.8876,0.8897,0.8898,0.8919,0.8935,0.8945,0.8964,0.8974,0.8997,0.899,0.8999,0.9014,0.9026,0.9045,0.9023,0.9051,0.9052,0.9046,0.9082,0.9086,0.9116,0.9071,0.9072,0.9072,0,0.8832,0.8852,0.8891,0.8911,0.892,0.8938,0.896,0.8979,0.8997,0.9003,0.9018,0.9021,0.9046,0.9034,0.9068,0.9053,0.9065,0.9072,0.9074,0.9077,0.9064,0.9087,0.9126,0.9131,0.9079,0.9079,0.9078,0,0.8853,0.8889,0.8917,0.8927,0.8951,0.8964,0.8974,0.8992,0.9006,0.9025,0.9034,0.9056,0.9068,0.9084,0.9093,0.9084,0.9127,0.9116,0.9132,0.9132,0.9142,0.9141,0.9184,0.9148,0.9148,0.9148,0.9148,0,0.8889,0.8913,0.8927,0.8944,0.897,0.8978,0.9005,0.9015,0.9031,0.905,0.9052,0.907,0.9081,0.91,0.9107,0.9134,0.914,0.9145,0.9147,0.9145,0.9145,0.9154,0.9152,0.915,0.9149,0.9149,0.9149,0,0.8917,0.8927,0.8958,0.8978,0.8983,0.9002,0.9019,0.9036,0.9045,0.9069,0.9075,0.9089,0.9112,0.9123,0.9151,0.9156,0.9187,0.9187,0.9181,0.9181,0.9197,0.9196,0.9248,0.9255,0.9214,0.9215,0.9215,0,0.8939,0.8958,0.8979,0.8992,0.9003,0.9024,0.9038,0.9046,0.906,0.9082,0.9096,0.9119,0.9138,0.9175,0.9188,0.9209,0.921,0.9226,0.9213,0.9211,0.9211,0.921,0.9211,0.9229,0.923,0.923,0.923,0,0.8978,0.8982,0.9001,0.9022,0.9039,0.9056,0.9073,0.9083,0.9094,0.911,0.9133,0.9148,0.9177,0.9199,0.9222,0.9232,0.9233,0.9234,0.9239,0.9238,0.9234,0.9237,0.9188,0.9233,0.9233,0.9233,0.9232,0.9232,0.9004,0.902,0.9038,0.9059,0.9073,0.9088,0.9105,0.9116,0.9135,0.9159,0.9163,0.9188,0.9205,0.9235,0.9247,0.9266,0.9262,0.927,0.9272,0.9273,0.9275,0.923,0.927,0.927,0.927,0.927,0.927,0,0.9043,0.9054,0.9074,0.9097,0.9114,0.9112,0.9131,0.9145,0.9167,0.9183,0.9202,0.9228,0.925,0.9264,0.9286,0.9299,0.93,0.9305,0.9304,0.9307,0.9277,0.927,0.9304,0.9304,0.9304,0.9304,0.9304,0.9304,0.9065,0.9092,0.9098,0.9132,0.9143,0.9167,0.9178,0.9192,0.9205,0.9235,0.9253,0.9262,0.9277,0.93,0.932,0.9324,0.9332,0.9337,0.934,0.9312,0.9309,0.9305,0.93,0.9338,0.9339,0.9369,0.9369,0.9369]}]]